Time,TemperatureF,DewpointF,PressureIn,WindDirection,WindDirectionDegrees,WindSpeedMPH,WindSpeedGustMPH,Humidity,HourlyPrecipIn,Conditions,Clouds,dailyrainin,SoftwareType,DateUTC
2013-05-16 00:01:00,76.7,53.1,29.77,WNW,293,5.6,5.6,44,0.00,,,0.00,WUHU216HW,2013-05-16 04:01:00,
2013-05-16 00:06:00,76.7,53.1,29.76,SSE,158,1.8,5.6,44,0.00,,,0.00,WUHU216HW,2013-05-16 04:06:00,
2013-05-16 00:11:00,76.7,53.1,29.77,SSW,203,0.9,4.5,44,0.00,,,0.00,WUHU216HW,2013-05-16 04:11:00,
2013-05-16 00:16:00,76.5,52.9,29.77,SSW,203,1.3,4.5,44,0.00,,,0.00,WUHU216HW,2013-05-16 04:16:00,
2013-05-16 00:21:00,76.5,52.9,29.77,SW,225,3.1,3.4,44,0.00,,,0.00,WUHU216HW,2013-05-16 04:21:00,
2013-05-16 00:26:00,76.5,52.9,29.77,South,180,3.1,3.6,44,0.00,,,0.00,WUHU216HW,2013-05-16 04:26:00,
2013-05-16 00:31:00,76.5,52.9,29.77,SW,225,3.6,4.0,44,0.00,,,0.00,WUHU216HW,2013-05-16 04:31:00,
2013-05-16 00:36:00,76.3,52.7,29.77,SW,225,2.5,4.0,44,0.00,,,0.00,WUHU216HW,2013-05-16 04:36:00,
2013-05-16 00:41:00,76.0,52.4,29.77,SW,225,2.9,3.4,44,0.00,,,0.00,WUHU216HW,2013-05-16 04:41:00,
2013-05-16 00:46:00,75.6,52.8,29.77,West,270,3.8,3.8,45,0.00,,,0.00,WUHU216HW,2013-05-16 04:46:00,
2013-05-16 00:51:00,75.4,52.6,29.77,WNW,293,1.8,4.0,45,0.00,,,0.00,WUHU216HW,2013-05-16 04:51:00,
2013-05-16 00:57:00,75.2,52.4,29.77,SSW,203,1.8,4.0,45,0.00,,,0.00,WUHU216HW,2013-05-16 04:57:00,
2013-05-16 01:02:00,75.1,52.2,29.77,WSW,248,0.4,3.8,45,0.00,,,0.00,WUHU216HW,2013-05-16 05:02:00,
2013-05-16 01:07:00,74.7,52.5,29.77,South,180,1.6,3.8,46,0.00,,,0.00,WUHU216HW,2013-05-16 05:07:00,
2013-05-16 01:12:00,74.5,52.3,29.76,WSW,248,1.3,2.9,46,0.00,,,0.00,WUHU216HW,2013-05-16 05:12:00,
2013-05-16 01:17:00,74.5,52.3,29.76,SSW,203,2.7,3.4,46,0.00,,,0.00,WUHU216HW,2013-05-16 05:17:00,
2013-05-16 01:22:00,74.5,52.3,29.76,SW,225,1.1,4.5,46,0.00,,,0.00,WUHU216HW,2013-05-16 05:22:00,
2013-05-16 01:27:00,74.2,52.6,29.76,SW,225,0.9,4.5,47,0.00,,,0.00,WUHU216HW,2013-05-16 05:27:00,
2013-05-16 01:32:00,73.8,52.2,29.76,SSW,203,1.1,3.8,47,0.00,,,0.00,WUHU216HW,2013-05-16 05:32:00,
2013-05-16 01:37:00,73.8,52.2,29.76,SW,225,1.6,3.4,47,0.00,,,0.00,WUHU216HW,2013-05-16 05:37:00,
2013-05-16 01:43:00,73.6,52.0,29.76,WSW,248,0.9,2.7,47,0.00,,,0.00,WUHU216HW,2013-05-16 05:43:00,
2013-05-16 01:49:00,73.4,51.8,29.76,SW,225,1.8,2.5,47,0.00,,,0.00,WUHU216HW,2013-05-16 05:49:00,
2013-05-16 01:54:00,73.4,52.5,29.76,SW,225,1.1,3.1,48,0.00,,,0.00,WUHU216HW,2013-05-16 05:54:00,
2013-05-16 01:59:00,73.4,52.5,29.76,SW,225,1.3,3.1,48,0.00,,,0.00,WUHU216HW,2013-05-16 05:59:00,
2013-05-16 02:04:00,73.4,52.5,29.76,SSW,203,1.8,2.5,48,0.00,,,0.00,WUHU216HW,2013-05-16 06:04:00,
2013-05-16 02:09:00,73.4,52.5,29.75,SSE,158,2.5,2.5,48,0.00,,,0.00,WUHU216HW,2013-05-16 06:09:00,
2013-05-16 02:14:00,73.4,52.5,29.76,WSW,248,0.4,2.5,48,0.00,,,0.00,WUHU216HW,2013-05-16 06:14:00,
2013-05-16 02:19:00,73.4,53.0,29.75,South,180,1.1,3.4,49,0.00,,,0.00,WUHU216HW,2013-05-16 06:19:00,
2013-05-16 02:24:00,73.4,52.5,29.76,WSW,248,0.4,3.4,48,0.00,,,0.00,WUHU216HW,2013-05-16 06:24:00,
2013-05-16 02:29:00,73.4,52.5,29.75,SW,225,1.1,1.8,48,0.00,,,0.00,WUHU216HW,2013-05-16 06:29:00,
2013-05-16 02:34:00,73.4,52.5,29.75,SSW,203,0.4,2.9,48,0.00,,,0.00,WUHU216HW,2013-05-16 06:34:00,
2013-05-16 02:39:00,73.3,52.3,29.75,WSW,248,1.1,2.9,48,0.00,,,0.00,WUHU216HW,2013-05-16 06:39:00,
2013-05-16 02:44:00,73.3,52.9,29.76,SSW,203,1.6,2.9,49,0.00,,,0.00,WUHU216HW,2013-05-16 06:44:00,
2013-05-16 02:49:00,73.3,52.9,29.76,SW,225,1.1,2.9,49,0.00,,,0.00,WUHU216HW,2013-05-16 06:49:00,
2013-05-16 02:54:00,73.1,52.8,29.76,SW,225,1.3,2.5,49,0.00,,,0.00,WUHU216HW,2013-05-16 06:54:00,
2013-05-16 02:59:00,73.1,52.8,29.76,SSW,203,1.6,2.5,49,0.00,,,0.00,WUHU216HW,2013-05-16 06:59:00,
2013-05-16 03:04:00,73.1,52.8,29.76,SW,225,0.7,3.4,49,0.00,,,0.00,WUHU216HW,2013-05-16 07:04:00,
2013-05-16 03:09:00,73.3,52.9,29.76,WNW,293,0.0,3.4,49,0.00,,,0.00,WUHU216HW,2013-05-16 07:09:00,
2013-05-16 03:14:00,73.4,53.0,29.76,SW,225,1.6,4.7,49,0.00,,,0.00,WUHU216HW,2013-05-16 07:14:00,
2013-05-16 03:19:00,73.8,53.4,29.76,SW,225,4.9,4.9,49,0.00,,,0.00,WUHU216HW,2013-05-16 07:19:00,
2013-05-16 03:24:00,73.8,52.8,29.76,SW,225,2.5,4.9,48,0.00,,,0.00,WUHU216HW,2013-05-16 07:24:00,
2013-05-16 03:29:00,73.8,52.8,29.76,SW,225,4.7,4.7,48,0.00,,,0.00,WUHU216HW,2013-05-16 07:29:00,
2013-05-16 03:34:00,73.8,52.8,29.76,SW,225,2.0,4.7,48,0.00,,,0.00,WUHU216HW,2013-05-16 07:34:00,
2013-05-16 03:39:00,73.6,52.7,29.76,WSW,248,1.1,4.7,48,0.00,,,0.00,WUHU216HW,2013-05-16 07:39:00,
2013-05-16 03:44:00,73.3,52.3,29.76,SSW,203,3.4,4.5,48,0.00,,,0.00,WUHU216HW,2013-05-16 07:44:00,
2013-05-16 03:49:00,72.7,52.4,29.76,SW,225,0.9,4.7,49,0.00,,,0.00,WUHU216HW,2013-05-16 07:49:00,
2013-05-16 03:54:00,72.4,52.1,29.76,SSW,203,4.7,4.7,49,0.00,,,0.00,WUHU216HW,2013-05-16 07:54:00,
2013-05-16 03:59:00,72.0,52.4,29.76,NNW,338,0.2,4.7,50,0.00,,,0.00,WUHU216HW,2013-05-16 07:59:00,
2013-05-16 04:04:00,71.8,52.2,29.76,SW,225,4.7,4.7,50,0.00,,,0.00,WUHU216HW,2013-05-16 08:04:00,
2013-05-16 04:09:00,71.6,52.0,29.76,West,270,0.4,4.7,50,0.00,,,0.00,WUHU216HW,2013-05-16 08:09:00,
2013-05-16 04:14:00,71.6,52.0,29.76,ESE,113,0.4,3.6,50,0.00,,,0.00,WUHU216HW,2013-05-16 08:14:00,
2013-05-16 04:19:00,71.5,51.8,29.76,SW,225,2.7,3.4,50,0.00,,,0.00,WUHU216HW,2013-05-16 08:19:00,
2013-05-16 04:24:00,71.3,51.7,29.76,SSW,203,1.1,2.7,50,0.00,,,0.00,WUHU216HW,2013-05-16 08:24:00,
2013-05-16 04:29:00,71.3,52.2,29.76,SW,225,1.1,2.5,51,0.00,,,0.00,WUHU216HW,2013-05-16 08:29:00,
2013-05-16 04:34:00,70.9,51.8,29.77,WSW,248,1.8,1.8,51,0.00,,,0.00,WUHU216HW,2013-05-16 08:34:00,
2013-05-16 04:39:00,70.9,51.8,29.77,SW,225,1.8,1.8,51,0.00,,,0.00,WUHU216HW,2013-05-16 08:39:00,
2013-05-16 04:44:00,70.7,51.8,29.77,South,180,1.3,1.8,51,0.00,,,0.00,WUHU216HW,2013-05-16 08:44:00,
2013-05-16 04:49:00,70.6,52.0,29.77,WNW,293,2.5,2.5,52,0.00,,,0.00,WUHU216HW,2013-05-16 08:49:00,
2013-05-16 04:54:00,70.7,52.2,29.77,SW,225,0.9,2.9,52,0.00,,,0.00,WUHU216HW,2013-05-16 08:54:00,
2013-05-16 04:59:00,70.7,52.2,29.77,ESE,113,0.7,2.9,52,0.00,,,0.00,WUHU216HW,2013-05-16 08:59:00,
2013-05-16 05:04:00,70.9,52.4,29.77,ESE,113,1.1,2.9,52,0.00,,,0.00,WUHU216HW,2013-05-16 09:04:00,
2013-05-16 05:09:00,71.1,52.6,29.77,NNW,338,1.1,1.8,52,0.00,,,0.00,WUHU216HW,2013-05-16 09:09:00,
2013-05-16 05:14:00,71.3,52.8,29.77,West,270,0.2,2.2,52,0.00,,,0.00,WUHU216HW,2013-05-16 09:14:00,
2013-05-16 05:19:00,71.3,52.8,29.77,WNW,293,0.7,2.2,52,0.00,,,0.00,WUHU216HW,2013-05-16 09:19:00,
2013-05-16 05:24:00,71.3,52.8,29.77,WSW,248,1.1,1.8,52,0.00,,,0.00,WUHU216HW,2013-05-16 09:24:00,
2013-05-16 05:29:00,71.3,52.8,29.77,SE,135,1.8,3.1,52,0.00,,,0.00,WUHU216HW,2013-05-16 09:29:00,
2013-05-16 05:34:00,71.5,52.4,29.77,North,0,0.7,3.1,51,0.00,,,0.00,WUHU216HW,2013-05-16 09:34:00,
2013-05-16 05:39:00,71.5,52.4,29.77,SSW,203,2.5,2.5,51,0.00,,,0.00,WUHU216HW,2013-05-16 09:39:00,
2013-05-16 05:44:00,71.3,52.2,29.77,SSW,203,1.1,2.5,51,0.00,,,0.00,WUHU216HW,2013-05-16 09:44:00,
2013-05-16 05:50:00,71.3,52.2,29.77,WSW,248,1.8,2.2,51,0.00,,,0.00,WUHU216HW,2013-05-16 09:50:00,
2013-05-16 05:55:00,71.3,52.8,29.78,South,180,4.0,4.7,52,0.00,,,0.00,WUHU216HW,2013-05-16 09:55:00,
2013-05-16 06:00:00,71.3,52.8,29.78,SW,225,3.1,4.7,52,0.00,,,0.00,WUHU216HW,2013-05-16 10:00:00,
2013-05-16 06:05:00,71.3,52.8,29.79,North,0,1.1,4.3,52,0.00,,,0.00,WUHU216HW,2013-05-16 10:05:00,
2013-05-16 06:10:00,71.3,52.8,29.79,South,180,2.5,4.3,52,0.00,,,0.00,WUHU216HW,2013-05-16 10:10:00,
2013-05-16 06:15:00,71.3,52.8,29.79,South,180,3.4,3.4,52,0.00,,,0.00,WUHU216HW,2013-05-16 10:15:00,
2013-05-16 06:20:00,71.3,52.8,29.80,WNW,293,0.2,3.4,52,0.00,,,0.00,WUHU216HW,2013-05-16 10:20:00,
2013-05-16 06:25:00,71.3,52.8,29.80,SSW,203,1.1,3.4,52,0.00,,,0.00,WUHU216HW,2013-05-16 10:25:00,
2013-05-16 06:30:00,71.5,52.8,29.81,WSW,248,0.7,3.4,52,0.00,,,0.00,WUHU216HW,2013-05-16 10:30:00,
2013-05-16 06:35:00,71.3,52.8,29.81,North,0,0.9,1.3,52,0.00,,,0.00,WUHU216HW,2013-05-16 10:35:00,
2013-05-16 06:40:00,71.3,53.2,29.81,WSW,248,0.4,1.3,53,0.00,,,0.00,WUHU216HW,2013-05-16 10:40:00,
2013-05-16 06:45:00,71.6,53.0,29.82,NW,315,0.9,1.1,52,0.00,,,0.00,WUHU216HW,2013-05-16 10:45:00,
2013-05-16 06:51:00,72.0,53.4,29.82,NNW,338,0.7,1.1,52,0.00,,,0.00,WUHU216HW,2013-05-16 10:51:00,
2013-05-16 06:56:00,72.5,53.4,29.82,WNW,293,0.4,0.9,51,0.00,,,0.00,WUHU216HW,2013-05-16 10:56:00,
2013-05-16 07:01:00,72.7,53.5,29.82,West,270,0.2,0.9,51,0.00,,,0.00,WUHU216HW,2013-05-16 11:01:00,
2013-05-16 07:06:00,72.7,53.5,29.82,NW,315,0.0,1.1,51,0.00,,,0.00,WUHU216HW,2013-05-16 11:06:00,
2013-05-16 07:11:00,72.7,54.0,29.83,NW,315,0.2,1.1,52,0.00,,,0.00,WUHU216HW,2013-05-16 11:11:00,
2013-05-16 07:16:00,72.5,53.8,29.83,ENE,68,0.2,1.8,52,0.00,,,0.00,WUHU216HW,2013-05-16 11:16:00,
2013-05-16 07:23:00,73.1,54.4,29.83,WSW,248,0.7,1.6,52,0.00,,,0.00,WUHU216HW,2013-05-16 11:23:00,
2013-05-16 07:28:00,73.3,54.5,29.83,North,0,1.1,2.5,52,0.00,,,0.00,WUHU216HW,2013-05-16 11:28:00,
2013-05-16 07:33:00,73.3,54.5,29.83,SSW,203,0.9,3.4,52,0.00,,,0.00,WUHU216HW,2013-05-16 11:33:00,
2013-05-16 07:38:00,73.4,55.2,29.83,ENE,68,0.2,3.4,53,0.00,,,0.00,WUHU216HW,2013-05-16 11:38:00,
2013-05-16 07:43:00,73.4,55.2,29.84,NW,315,0.0,1.6,53,0.00,,,0.00,WUHU216HW,2013-05-16 11:43:00,
2013-05-16 07:48:00,73.4,55.2,29.83,WSW,248,1.6,2.2,53,0.00,,,0.00,WUHU216HW,2013-05-16 11:48:00,
2013-05-16 07:53:00,73.3,55.0,29.83,ESE,113,0.0,2.2,53,0.00,,,0.00,WUHU216HW,2013-05-16 11:53:00,
2013-05-16 07:58:00,73.1,55.4,29.83,ESE,113,0.4,0.7,54,0.00,,,0.00,WUHU216HW,2013-05-16 11:58:00,
2013-05-16 08:03:00,73.1,55.4,29.82,West,270,2.0,2.0,54,0.00,,,0.00,WUHU216HW,2013-05-16 12:03:00,
2013-05-16 08:08:00,72.9,55.2,29.83,WSW,248,0.7,2.0,54,0.00,,,0.00,WUHU216HW,2013-05-16 12:08:00,
2013-05-16 08:13:00,72.7,55.0,29.83,SSW,203,1.6,2.0,54,0.00,,,0.00,WUHU216HW,2013-05-16 12:13:00,
2013-05-16 08:18:00,72.7,55.5,29.83,WSW,248,2.0,2.0,55,0.00,,,0.00,WUHU216HW,2013-05-16 12:18:00,
2013-05-16 08:23:00,72.7,56.0,29.84,NNE,23,1.1,4.3,56,0.00,,,0.00,WUHU216HW,2013-05-16 12:23:00,
2013-05-16 08:28:00,72.4,55.7,29.84,SW,225,2.9,4.3,56,0.00,,,0.00,WUHU216HW,2013-05-16 12:28:00,
2013-05-16 08:33:00,72.4,55.2,29.84,WSW,248,0.0,2.9,55,0.00,,,0.00,WUHU216HW,2013-05-16 12:33:00,
2013-05-16 08:38:00,72.5,55.4,29.84,SW,225,0.2,1.6,55,0.00,,,0.00,WUHU216HW,2013-05-16 12:38:00,
2013-05-16 08:43:00,73.1,56.3,29.84,SSW,203,0.0,1.6,56,0.00,,,0.00,WUHU216HW,2013-05-16 12:43:00,
2013-05-16 08:48:00,73.6,56.3,29.83,WSW,248,1.3,1.3,55,0.00,,,0.00,WUHU216HW,2013-05-16 12:48:00,
2013-05-16 08:53:00,74.3,57.6,29.83,ENE,68,0.4,1.3,56,0.00,,,0.00,WUHU216HW,2013-05-16 12:53:00,
2013-05-16 08:58:00,74.5,56.7,29.83,WSW,248,0.0,1.1,54,0.00,,,0.00,WUHU216HW,2013-05-16 12:58:00,
2013-05-16 09:03:00,74.5,56.7,29.83,West,270,1.1,2.0,54,0.00,,,0.00,WUHU216HW,2013-05-16 13:03:00,
2013-05-16 09:08:00,74.3,56.5,29.83,WSW,248,0.0,2.0,54,0.00,,,0.00,WUHU216HW,2013-05-16 13:08:00,
2013-05-16 09:13:00,74.2,56.3,29.83,ESE,113,0.7,1.8,54,0.00,,,0.00,WUHU216HW,2013-05-16 13:13:00,
2013-05-16 09:19:00,73.8,56.5,29.84,NNE,23,0.4,1.1,55,0.00,,,0.00,WUHU216HW,2013-05-16 13:19:00,
2013-05-16 09:24:00,73.8,56.5,29.84,South,180,0.4,1.1,55,0.00,,,0.00,WUHU216HW,2013-05-16 13:24:00,
2013-05-16 09:29:00,73.8,56.0,29.84,NW,315,1.3,1.3,54,0.00,,,0.00,WUHU216HW,2013-05-16 13:29:00,
2013-05-16 09:34:00,74.0,56.7,29.84,WNW,293,0.4,1.3,55,0.00,,,0.00,WUHU216HW,2013-05-16 13:34:00,
2013-05-16 09:39:00,74.3,56.5,29.83,WSW,248,0.2,1.1,54,0.00,,,0.00,WUHU216HW,2013-05-16 13:39:00,
2013-05-16 09:44:00,74.7,58.0,29.83,NW,315,0.0,1.1,56,0.00,,,0.00,WUHU216HW,2013-05-16 13:44:00,
2013-05-16 09:49:00,74.9,57.1,29.83,SW,225,3.1,3.1,54,0.00,,,0.00,WUHU216HW,2013-05-16 13:49:00,
2013-05-16 09:54:00,75.2,57.0,29.83,NNE,23,2.0,3.1,53,0.00,,,0.00,WUHU216HW,2013-05-16 13:54:00,
2013-05-16 10:00:00,75.2,57.0,29.84,NNW,338,0.9,2.0,53,0.00,,,0.00,WUHU216HW,2013-05-16 14:00:00,
2013-05-16 10:05:00,75.4,57.6,29.84,SSE,158,0.2,1.8,54,0.00,,,0.00,WUHU216HW,2013-05-16 14:05:00,
2013-05-16 10:10:00,76.1,58.2,29.84,NNW,338,0.0,1.8,54,0.00,,,0.00,WUHU216HW,2013-05-16 14:10:00,
2013-05-16 10:15:00,77.2,58.2,29.84,NE,45,1.8,2.0,52,0.00,,,0.00,WUHU216HW,2013-05-16 14:15:00,
2013-05-16 10:20:00,77.9,57.9,29.84,NNW,338,1.8,3.4,50,0.00,,,0.00,WUHU216HW,2013-05-16 14:20:00,
2013-05-16 10:25:00,77.9,57.2,29.84,SW,225,2.2,3.4,49,0.00,,,0.00,WUHU216HW,2013-05-16 14:25:00,
2013-05-16 10:30:00,77.2,57.3,29.84,NW,315,0.7,3.4,50,0.00,,,0.00,WUHU216HW,2013-05-16 14:30:00,
2013-05-16 10:35:00,76.7,56.7,29.84,WSW,248,2.0,3.4,50,0.00,,,0.00,WUHU216HW,2013-05-16 14:35:00,
2013-05-16 10:40:00,76.3,57.4,29.84,NNW,338,1.1,2.5,52,0.00,,,0.00,WUHU216HW,2013-05-16 14:40:00,
2013-05-16 10:45:00,76.1,57.8,29.84,WNW,293,1.1,3.4,53,0.00,,,0.00,WUHU216HW,2013-05-16 14:45:00,
2013-05-16 10:50:00,76.0,57.1,29.85,WNW,293,0.4,3.4,52,0.00,,,0.00,WUHU216HW,2013-05-16 14:50:00,
2013-05-16 10:55:00,75.6,57.2,29.85,North,0,1.8,1.8,53,0.00,,,0.00,WUHU216HW,2013-05-16 14:55:00,
2013-05-16 11:00:00,75.2,57.0,29.85,North,0,1.8,8.7,53,0.00,,,0.00,WUHU216HW,2013-05-16 15:00:00,
2013-05-16 11:05:00,75.1,56.8,29.86,NNW,338,1.8,8.7,53,0.00,,,0.00,WUHU216HW,2013-05-16 15:05:00,
2013-05-16 11:10:00,74.9,57.6,29.87,NNW,338,2.2,2.7,55,0.00,,,0.00,WUHU216HW,2013-05-16 15:10:00,
2013-05-16 11:15:00,74.7,57.4,29.87,North,0,1.1,2.2,55,0.00,,,0.00,WUHU216HW,2013-05-16 15:15:00,
2013-05-16 11:20:00,74.5,57.8,29.87,NW,315,2.0,2.2,56,0.00,,,0.00,WUHU216HW,2013-05-16 15:20:00,
2013-05-16 11:25:00,74.5,57.2,29.87,NW,315,1.6,3.6,55,0.00,,,0.00,WUHU216HW,2013-05-16 15:25:00,
2013-05-16 11:30:00,74.3,56.5,29.87,WSW,248,2.9,6.7,54,0.00,,,0.00,WUHU216HW,2013-05-16 15:30:00,
2013-05-16 11:35:00,74.3,57.6,29.87,South,180,0.7,6.7,56,0.00,,,0.00,WUHU216HW,2013-05-16 15:35:00,
2013-05-16 11:40:00,74.0,57.7,29.86,WNW,293,1.8,3.8,57,0.00,,,0.00,WUHU216HW,2013-05-16 15:40:00,
2013-05-16 11:45:00,73.6,57.9,29.86,East,90,0.7,6.9,58,0.00,,,0.00,WUHU216HW,2013-05-16 15:45:00,
2013-05-16 11:50:00,73.3,58.1,29.85,WSW,248,1.6,6.9,59,0.00,,,0.00,WUHU216HW,2013-05-16 15:50:00,
2013-05-16 11:55:00,72.7,60.2,29.84,West,270,1.3,4.5,65,0.00,,,0.00,WUHU216HW,2013-05-16 15:55:00,
2013-05-16 12:00:00,71.8,58.5,29.84,SSW,203,2.9,4.5,63,0.00,,,0.00,WUHU216HW,2013-05-16 16:00:00,
2013-05-16 12:05:00,70.9,58.5,29.84,SSW,203,2.7,6.3,65,0.01,,,0.01,WUHU216HW,2013-05-16 16:05:00,
2013-05-16 12:10:00,70.2,58.2,29.84,SW,225,2.5,6.3,66,0.02,,,0.02,WUHU216HW,2013-05-16 16:10:00,
2013-05-16 12:16:00,69.3,58.2,29.84,NW,315,0.9,2.5,68,0.02,,,0.02,WUHU216HW,2013-05-16 16:16:00,
2013-05-16 12:21:00,68.9,58.0,29.84,SW,225,0.4,1.8,68,0.02,,,0.02,WUHU216HW,2013-05-16 16:21:00,
2013-05-16 12:26:00,68.8,58.1,29.84,WSW,248,1.3,1.8,69,0.02,,,0.02,WUHU216HW,2013-05-16 16:26:00,
2013-05-16 12:31:00,68.8,59.4,29.83,NE,45,1.1,1.8,72,0.02,,,0.02,WUHU216HW,2013-05-16 16:31:00,
2013-05-16 12:36:00,68.6,60.8,29.83,North,0,2.0,2.0,76,0.02,,,0.02,WUHU216HW,2013-05-16 16:36:00,
2013-05-16 12:41:00,68.4,60.2,29.83,North,0,1.8,2.5,75,0.02,,,0.02,WUHU216HW,2013-05-16 16:41:00,
2013-05-16 12:46:00,68.4,60.2,29.84,NNW,338,0.7,2.5,75,0.02,,,0.02,WUHU216HW,2013-05-16 16:46:00,
2013-05-16 12:51:00,68.4,60.6,29.84,NNE,23,0.9,1.6,76,0.02,,,0.02,WUHU216HW,2013-05-16 16:51:00,
2013-05-16 12:56:00,68.4,60.2,29.85,South,180,0.4,1.1,75,0.02,,,0.02,WUHU216HW,2013-05-16 16:56:00,
2013-05-16 13:01:00,68.8,60.5,29.85,West,270,1.1,1.3,75,0.01,,,0.02,WUHU216HW,2013-05-16 17:01:00,
2013-05-16 13:06:00,69.5,60.0,29.85,WSW,248,4.5,4.5,72,0.00,,,0.02,WUHU216HW,2013-05-16 17:06:00,
2013-05-16 13:11:00,70.2,60.7,29.85,North,0,1.6,4.5,72,0.00,,,0.02,WUHU216HW,2013-05-16 17:11:00,
2013-05-16 13:16:00,70.7,61.7,29.85,SSW,203,2.5,2.7,73,0.00,,,0.02,WUHU216HW,2013-05-16 17:16:00,
2013-05-16 13:21:00,70.9,60.7,29.85,WSW,248,0.4,2.5,70,0.00,,,0.02,WUHU216HW,2013-05-16 17:21:00,
2013-05-16 13:26:00,71.1,60.8,29.85,WSW,248,2.9,3.4,70,0.00,,,0.02,WUHU216HW,2013-05-16 17:26:00,
2013-05-16 13:31:00,71.5,61.2,29.85,North,0,2.5,3.4,70,0.00,,,0.02,WUHU216HW,2013-05-16 17:31:00,
2013-05-16 13:36:00,71.6,60.5,29.85,SSE,158,1.6,2.9,68,0.00,,,0.02,WUHU216HW,2013-05-16 17:36:00,
2013-05-16 13:41:00,71.8,60.7,29.85,SE,135,1.1,2.9,68,0.00,,,0.02,WUHU216HW,2013-05-16 17:41:00,
2013-05-16 13:46:00,72.4,62.1,29.85,SW,225,1.3,2.7,70,0.00,,,0.02,WUHU216HW,2013-05-16 17:46:00,
2013-05-16 13:51:00,72.9,61.3,29.85,North,0,1.3,2.7,67,0.00,,,0.02,WUHU216HW,2013-05-16 17:51:00,
2013-05-16 13:56:00,73.1,61.0,29.85,NNW,338,1.8,2.5,66,0.00,,,0.02,WUHU216HW,2013-05-16 17:56:00,
2013-05-16 14:01:00,73.1,61.5,29.85,East,90,1.1,2.5,67,0.00,,,0.02,WUHU216HW,2013-05-16 18:01:00,
2013-05-16 14:06:00,73.1,61.0,29.85,North,0,1.6,2.2,66,0.00,,,0.02,WUHU216HW,2013-05-16 18:06:00,
2013-05-16 14:11:00,73.1,61.5,29.85,North,0,1.6,2.2,67,0.00,,,0.02,WUHU216HW,2013-05-16 18:11:00,
2013-05-16 14:16:00,73.4,61.4,29.86,NW,315,1.1,2.5,66,0.00,,,0.02,WUHU216HW,2013-05-16 18:16:00,
2013-05-16 14:21:00,73.4,60.5,29.86,NW,315,2.9,3.6,64,0.00,,,0.02,WUHU216HW,2013-05-16 18:21:00,
2013-05-16 14:26:00,73.4,60.9,29.86,WNW,293,2.2,3.6,65,0.00,,,0.02,WUHU216HW,2013-05-16 18:26:00,
2013-05-16 14:31:00,73.4,60.9,29.86,ESE,113,3.4,4.0,65,0.00,,,0.02,WUHU216HW,2013-05-16 18:31:00,
2013-05-16 14:36:00,73.4,61.4,29.86,North,0,2.2,4.0,66,0.00,,,0.02,WUHU216HW,2013-05-16 18:36:00,
2013-05-16 14:41:00,73.6,61.1,29.86,North,0,0.9,3.4,65,0.00,,,0.02,WUHU216HW,2013-05-16 18:41:00,
2013-05-16 14:46:00,73.6,61.6,29.86,NW,315,0.7,2.7,66,0.00,,,0.02,WUHU216HW,2013-05-16 18:46:00,
2013-05-16 14:51:00,73.8,61.3,29.86,NNE,23,0.7,2.2,65,0.00,,,0.02,WUHU216HW,2013-05-16 18:51:00,
2013-05-16 14:56:00,74.0,61.5,29.86,SSE,158,0.4,3.4,65,0.00,,,0.02,WUHU216HW,2013-05-16 18:56:00,
2013-05-16 15:01:00,74.2,61.7,29.85,NW,315,4.0,4.0,65,0.00,,,0.02,WUHU216HW,2013-05-16 19:01:00,
2013-05-16 15:06:00,74.3,61.8,29.85,NNE,23,2.5,4.0,65,0.00,,,0.02,WUHU216HW,2013-05-16 19:06:00,
2013-05-16 15:11:00,74.5,61.6,29.85,West,270,2.2,2.5,64,0.00,,,0.02,WUHU216HW,2013-05-16 19:11:00,
2013-05-16 15:16:00,74.5,61.6,29.85,WSW,248,2.9,2.9,64,0.00,,,0.02,WUHU216HW,2013-05-16 19:16:00,
2013-05-16 15:21:00,74.7,62.1,29.85,NE,45,1.1,5.1,65,0.00,,,0.02,WUHU216HW,2013-05-16 19:21:00,
2013-05-16 15:26:00,74.7,61.3,29.84,WNW,293,2.0,5.1,63,0.00,,,0.02,WUHU216HW,2013-05-16 19:26:00,
2013-05-16 15:31:00,74.5,61.6,29.84,North,0,2.2,2.5,64,0.00,,,0.02,WUHU216HW,2013-05-16 19:31:00,
2013-05-16 15:36:00,74.7,61.7,29.84,NE,45,1.8,2.5,64,0.00,,,0.02,WUHU216HW,2013-05-16 19:36:00,
2013-05-16 15:41:00,74.7,61.7,29.84,NE,45,0.7,2.0,64,0.00,,,0.02,WUHU216HW,2013-05-16 19:41:00,
2013-05-16 15:46:00,74.9,61.5,29.84,North,0,1.1,2.0,63,0.00,,,0.02,WUHU216HW,2013-05-16 19:46:00,
2013-05-16 15:51:00,74.9,61.5,29.84,North,0,1.8,2.5,63,0.00,,,0.02,WUHU216HW,2013-05-16 19:51:00,
2013-05-16 15:56:00,75.1,61.6,29.84,WNW,293,1.3,7.8,63,0.00,,,0.02,WUHU216HW,2013-05-16 19:56:00,
2013-05-16 16:01:00,75.2,61.4,29.84,WNW,293,2.2,7.8,62,0.00,,,0.02,WUHU216HW,2013-05-16 20:01:00,
2013-05-16 16:06:00,75.6,62.1,29.84,SE,135,2.0,5.8,63,0.00,,,0.02,WUHU216HW,2013-05-16 20:06:00,
2013-05-16 16:11:00,75.8,61.8,29.84,ESE,113,0.9,5.8,62,0.00,,,0.02,WUHU216HW,2013-05-16 20:11:00,
2013-05-16 16:16:00,76.1,61.8,29.84,WSW,248,2.7,2.7,61,0.00,,,0.02,WUHU216HW,2013-05-16 20:16:00,
2013-05-16 16:22:00,76.5,62.1,29.84,North,0,1.3,2.7,61,0.00,,,0.02,WUHU216HW,2013-05-16 20:22:00,
2013-05-16 16:27:00,76.3,62.4,29.84,East,90,1.1,3.4,62,0.00,,,0.02,WUHU216HW,2013-05-16 20:27:00,
2013-05-16 16:31:00,76.7,62.2,29.84,SW,225,2.0,3.4,61,0.00,,,0.02,WUHU216HW,2013-05-16 20:31:00,
2013-05-16 16:36:00,77.0,63.0,29.84,WNW,293,2.5,2.7,62,0.00,,,0.02,WUHU216HW,2013-05-16 20:36:00,
2013-05-16 16:41:00,77.2,61.3,29.84,SE,135,0.4,2.7,58,0.00,,,0.02,WUHU216HW,2013-05-16 20:41:00,
2013-05-16 16:46:00,77.0,62.1,29.84,WNW,293,1.3,2.0,60,0.00,,,0.02,WUHU216HW,2013-05-16 20:46:00,
2013-05-16 16:51:00,76.7,61.3,29.84,West,270,1.1,3.4,59,0.00,,,0.02,WUHU216HW,2013-05-16 20:51:00,
2013-05-16 16:56:00,76.3,60.5,29.84,NW,315,0.4,3.4,58,0.00,,,0.02,WUHU216HW,2013-05-16 20:56:00,
2013-05-16 17:01:00,76.1,60.8,29.84,SSW,203,1.8,4.7,59,0.00,,,0.02,WUHU216HW,2013-05-16 21:01:00,
2013-05-16 17:06:00,76.1,61.3,29.85,ESE,113,1.1,4.7,60,0.00,,,0.02,WUHU216HW,2013-05-16 21:06:00,
2013-05-16 17:11:00,76.0,61.1,29.84,SSW,203,2.2,2.2,60,0.00,,,0.02,WUHU216HW,2013-05-16 21:11:00,
2013-05-16 17:16:00,76.1,61.3,29.85,South,180,0.4,2.2,60,0.00,,,0.02,WUHU216HW,2013-05-16 21:16:00,
2013-05-16 17:21:00,76.3,60.5,29.85,NW,315,0.2,1.8,58,0.00,,,0.02,WUHU216HW,2013-05-16 21:21:00,
2013-05-16 17:26:00,76.5,61.1,29.85,West,270,1.1,1.8,59,0.00,,,0.02,WUHU216HW,2013-05-16 21:26:00,
2013-05-16 17:31:00,76.1,61.3,29.85,NW,315,0.4,2.2,60,0.00,,,0.02,WUHU216HW,2013-05-16 21:31:00,
2013-05-16 17:36:00,76.0,60.1,29.86,ESE,113,0.4,2.2,58,0.00,,,0.02,WUHU216HW,2013-05-16 21:36:00,
2013-05-16 17:41:00,75.4,59.7,29.86,North,0,0.9,2.5,58,0.00,,,0.02,WUHU216HW,2013-05-16 21:41:00,
2013-05-16 17:46:00,75.2,59.5,29.86,NNW,338,0.4,2.5,58,0.00,,,0.02,WUHU216HW,2013-05-16 21:46:00,
2013-05-16 17:51:00,75.2,59.5,29.86,North,0,1.8,3.1,58,0.00,,,0.02,WUHU216HW,2013-05-16 21:51:00,
2013-05-16 17:56:00,75.1,59.3,29.86,North,0,0.4,3.1,58,0.00,,,0.02,WUHU216HW,2013-05-16 21:56:00,
2013-05-16 18:01:00,75.1,59.3,29.86,North,0,1.1,2.5,58,0.00,,,0.02,WUHU216HW,2013-05-16 22:01:00,
2013-05-16 18:06:00,75.1,59.3,29.86,NNW,338,1.1,2.5,58,0.00,,,0.02,WUHU216HW,2013-05-16 22:06:00,
2013-05-16 18:11:00,75.1,59.8,29.86,NNW,338,0.7,1.8,59,0.00,,,0.02,WUHU216HW,2013-05-16 22:11:00,
2013-05-16 18:16:00,75.2,59.5,29.87,NNW,338,1.1,1.8,58,0.00,,,0.02,WUHU216HW,2013-05-16 22:16:00,
2013-05-16 18:21:00,75.2,59.5,29.86,NW,315,0.4,1.3,58,0.00,,,0.02,WUHU216HW,2013-05-16 22:21:00,
2013-05-16 18:26:00,75.1,59.3,29.86,WSW,248,0.9,1.1,58,0.00,,,0.02,WUHU216HW,2013-05-16 22:26:00,
2013-05-16 18:31:00,74.9,59.6,29.87,ESE,113,1.3,3.4,59,0.00,,,0.02,WUHU216HW,2013-05-16 22:31:00,
2013-05-16 18:36:00,74.7,59.9,29.86,SSW,203,0.9,4.5,60,0.00,,,0.02,WUHU216HW,2013-05-16 22:36:00,
2013-05-16 18:41:00,74.5,59.8,29.87,North,0,0.9,4.5,60,0.00,,,0.02,WUHU216HW,2013-05-16 22:41:00,
2013-05-16 18:46:00,74.3,59.6,29.87,ESE,113,1.1,2.7,60,0.00,,,0.02,WUHU216HW,2013-05-16 22:46:00,
2013-05-16 18:51:00,74.3,60.0,29.87,North,0,0.9,1.8,61,0.00,,,0.02,WUHU216HW,2013-05-16 22:51:00,
2013-05-16 18:56:00,74.2,59.4,29.87,ESE,113,0.4,2.5,60,0.00,,,0.02,WUHU216HW,2013-05-16 22:56:00,
2013-05-16 19:01:00,74.0,59.2,29.87,NNW,338,0.4,2.5,60,0.00,,,0.02,WUHU216HW,2013-05-16 23:01:00,
2013-05-16 19:06:00,73.8,58.5,29.87,NE,45,0.9,1.8,59,0.00,,,0.02,WUHU216HW,2013-05-16 23:06:00,
2013-05-16 19:11:00,73.6,57.9,29.87,NW,315,2.2,2.2,58,0.00,,,0.02,WUHU216HW,2013-05-16 23:11:00,
2013-05-16 19:16:00,73.6,58.3,29.87,NNW,338,1.1,2.2,59,0.00,,,0.02,WUHU216HW,2013-05-16 23:16:00,
2013-05-16 19:21:00,73.4,58.1,29.87,NNW,338,1.6,1.6,59,0.00,,,0.02,WUHU216HW,2013-05-16 23:21:00,
2013-05-16 19:26:00,73.4,58.1,29.87,NNW,338,0.7,1.8,59,0.00,,,0.02,WUHU216HW,2013-05-16 23:26:00,
2013-05-16 19:31:00,73.3,58.1,29.87,NW,315,1.3,1.8,59,0.00,,,0.02,WUHU216HW,2013-05-16 23:31:00,
2013-05-16 19:36:00,73.3,57.5,29.88,NNE,23,0.7,1.8,58,0.00,,,0.02,WUHU216HW,2013-05-16 23:36:00,
2013-05-16 19:41:00,73.1,57.3,29.88,WNW,293,0.9,1.8,58,0.00,,,0.02,WUHU216HW,2013-05-16 23:41:00,
2013-05-16 19:46:00,73.1,57.3,29.88,ESE,113,0.4,2.7,58,0.00,,,0.02,WUHU216HW,2013-05-16 23:46:00,
2013-05-16 19:51:00,73.1,57.3,29.88,NW,315,0.7,4.5,58,0.00,,,0.02,WUHU216HW,2013-05-16 23:51:00,
2013-05-16 19:56:00,73.1,57.3,29.88,NW,315,1.6,4.5,58,0.00,,,0.02,WUHU216HW,2013-05-16 23:56:00,
2013-05-16 20:01:00,73.1,57.3,29.88,ENE,68,0.4,1.8,58,0.00,,,0.00,WUHU216HW,2013-05-17 00:01:00,
2013-05-16 20:06:00,72.9,57.2,29.88,ENE,68,0.9,1.8,58,0.00,,,0.00,WUHU216HW,2013-05-17 00:06:00,
2013-05-16 20:11:00,72.7,56.5,29.88,NNE,23,1.1,2.7,57,0.00,,,0.00,WUHU216HW,2013-05-17 00:11:00,
2013-05-16 20:16:00,72.7,56.5,29.88,ENE,68,1.8,2.7,57,0.00,,,0.00,WUHU216HW,2013-05-17 00:16:00,
2013-05-16 20:21:00,72.5,56.9,29.88,ESE,113,1.8,2.7,58,0.00,,,0.00,WUHU216HW,2013-05-17 00:21:00,
2013-05-16 20:27:00,72.5,56.9,29.89,NW,315,1.6,2.7,58,0.00,,,0.00,WUHU216HW,2013-05-17 00:27:00,
2013-05-16 20:32:00,72.4,56.7,29.89,NNW,338,0.4,2.9,58,0.00,,,0.00,WUHU216HW,2013-05-17 00:32:00,
2013-05-16 20:37:00,72.4,56.7,29.89,NNW,338,1.8,2.9,58,0.00,,,0.00,WUHU216HW,2013-05-17 00:37:00,
2013-05-16 20:42:00,72.2,56.1,29.89,ENE,68,1.1,4.7,57,0.00,,,0.00,WUHU216HW,2013-05-17 00:42:00,
2013-05-16 20:47:00,72.4,56.7,29.89,ENE,68,1.1,4.7,58,0.00,,,0.00,WUHU216HW,2013-05-17 00:47:00,
2013-05-16 20:52:00,72.4,56.7,29.89,WNW,293,0.7,2.2,58,0.00,,,0.00,WUHU216HW,2013-05-17 00:52:00,
2013-05-16 20:57:00,72.2,56.5,29.89,North,0,3.8,3.8,58,0.00,,,0.00,WUHU216HW,2013-05-17 00:57:00,
2013-05-16 21:02:00,72.2,56.5,29.90,ENE,68,0.9,3.8,58,0.00,,,0.00,WUHU216HW,2013-05-17 01:02:00,
2013-05-16 21:07:00,72.0,56.9,29.90,West,270,2.9,2.9,59,0.00,,,0.00,WUHU216HW,2013-05-17 01:07:00,
2013-05-16 21:12:00,72.2,56.5,29.91,NNE,23,0.9,2.9,58,0.00,,,0.00,WUHU216HW,2013-05-17 01:12:00,
2013-05-16 21:17:00,72.2,57.1,29.91,NNW,338,1.3,2.5,59,0.00,,,0.00,WUHU216HW,2013-05-17 01:17:00,
2013-05-16 21:22:00,72.0,56.9,29.91,East,90,1.3,2.5,59,0.00,,,0.00,WUHU216HW,2013-05-17 01:22:00,
2013-05-16 21:27:00,71.8,57.3,29.91,NNE,23,4.7,4.7,60,0.00,,,0.00,WUHU216HW,2013-05-17 01:27:00,
2013-05-16 21:32:00,71.6,57.1,29.92,WSW,248,1.1,4.7,60,0.00,,,0.00,WUHU216HW,2013-05-17 01:32:00,
2013-05-16 21:37:00,71.5,56.9,29.92,North,0,0.4,3.8,60,0.00,,,0.00,WUHU216HW,2013-05-17 01:37:00,
2013-05-16 21:42:00,71.5,56.9,29.92,ENE,68,0.9,1.8,60,0.00,,,0.00,WUHU216HW,2013-05-17 01:42:00,
2013-05-16 21:47:00,71.3,56.7,29.92,NW,315,0.0,1.8,60,0.00,,,0.00,WUHU216HW,2013-05-17 01:47:00,
2013-05-16 21:52:00,71.1,56.6,29.92,NW,315,1.6,1.6,60,0.00,,,0.00,WUHU216HW,2013-05-17 01:52:00,
2013-05-16 21:59:00,71.1,56.6,29.92,ENE,68,0.4,1.6,60,0.00,,,0.00,WUHU216HW,2013-05-17 01:59:00,
2013-05-16 22:04:00,70.9,55.9,29.92,NW,315,0.4,1.1,59,0.00,,,0.00,WUHU216HW,2013-05-17 02:04:00,
2013-05-16 22:11:00,70.7,55.7,29.92,NNW,338,1.1,1.3,59,0.00,,,0.00,WUHU216HW,2013-05-17 02:11:00,
2013-05-16 22:16:00,70.7,55.7,29.92,North,0,0.9,1.3,59,0.00,,,0.00,WUHU216HW,2013-05-17 02:16:00,
2013-05-16 22:22:00,70.6,55.6,29.92,WNW,293,1.1,1.8,59,0.00,,,0.00,WUHU216HW,2013-05-17 02:22:00,
2013-05-16 22:27:00,70.4,55.5,29.93,NNW,338,0.7,1.8,59,0.00,,,0.00,WUHU216HW,2013-05-17 02:27:00,
2013-05-16 22:32:00,70.2,55.3,29.92,SE,135,0.4,1.3,59,0.00,,,0.00,WUHU216HW,2013-05-17 02:32:00,
2013-05-16 22:37:00,69.8,54.9,29.92,SSW,203,1.1,1.8,59,0.00,,,0.00,WUHU216HW,2013-05-17 02:37:00,
2013-05-16 22:43:00,69.7,55.3,29.92,SW,225,2.2,3.1,60,0.00,,,0.00,WUHU216HW,2013-05-17 02:43:00,
2013-05-16 22:48:00,69.5,55.1,29.93,South,180,2.0,3.1,60,0.00,,,0.00,WUHU216HW,2013-05-17 02:48:00,
2013-05-16 22:53:00,69.3,54.9,29.93,SSW,203,1.1,2.5,60,0.00,,,0.00,WUHU216HW,2013-05-17 02:53:00,
2013-05-16 22:58:00,68.9,55.0,29.93,SSW,203,2.0,2.5,61,0.00,,,0.00,WUHU216HW,2013-05-17 02:58:00,
2013-05-16 23:03:00,68.8,54.8,29.93,SW,225,1.3,2.7,61,0.00,,,0.00,WUHU216HW,2013-05-17 03:03:00,
2013-05-16 23:08:00,68.6,54.6,29.93,WSW,248,1.3,2.7,61,0.00,,,0.00,WUHU216HW,2013-05-17 03:08:00,
2013-05-16 23:13:00,68.2,54.7,29.93,WNW,293,0.0,1.8,62,0.00,,,0.00,WUHU216HW,2013-05-17 03:13:00,
2013-05-16 23:18:00,68.0,54.9,29.93,WSW,248,0.0,0.9,63,0.00,,,0.00,WUHU216HW,2013-05-17 03:18:00,
2013-05-16 23:23:00,67.5,54.5,29.93,WNW,293,0.0,1.8,63,0.00,,,0.00,WUHU216HW,2013-05-17 03:23:00,
2013-05-16 23:28:00,67.1,54.1,29.93,SW,225,0.4,1.8,63,0.00,,,0.00,WUHU216HW,2013-05-17 03:28:00,
2013-05-16 23:33:00,67.0,53.9,29.93,WSW,248,0.4,0.4,63,0.00,,,0.00,WUHU216HW,2013-05-17 03:33:00,
2013-05-16 23:38:00,66.8,54.2,29.93,SSW,203,0.4,1.8,64,0.00,,,0.00,WUHU216HW,2013-05-17 03:38:00,
2013-05-16 23:43:00,66.6,54.0,29.93,West,270,0.9,1.8,64,0.00,,,0.00,WUHU216HW,2013-05-17 03:43:00,
2013-05-16 23:49:00,66.4,54.3,29.93,SE,135,0.0,0.9,65,0.00,,,0.00,WUHU216HW,2013-05-17 03:49:00,
2013-05-16 23:54:00,66.2,54.1,29.93,WNW,293,0.0,0.4,65,0.00,,,0.00,WUHU216HW,2013-05-17 03:54:00,
2013-05-16 23:59:00,66.2,54.1,29.93,ESE,113,0.4,0.9,65,0.00,,,0.00,WUHU216HW,2013-05-17 03:59:00,